Location: Ferintosh
(52.7647°N, 112.9692°W)
Time: 23:56:48
(UTC+00:00)

Vanguard 1 Rocket - Pass Details

Date: 22 May 2024
Orbit: 649 x 4221 km, 34.3° (Epoch: 13 June)

Event Time Altitude Azimuth Distance (km) Brightness Sun altitude
Rises 13:46:05 0° 185° (S) 8,402 12.2 18.8°
Reaches altitude 10° 13:57:17 10° 165° (SSE) 6,962 12.1 20.5°
Maximum altitude 14:05:39 13° 143° (SE) 6,101 12.1 21.8°
Drops below altitude 10° 14:12:43 10° 119° (ESE) 5,770 12.5 22.8°
Sets 14:19:45 0° 97° (E) 6,013 13.0 23.9°
